Regional Weather Roundup
Issued by NWS

Home | Current Version | Previous Version | Text Only | Print | Product List | Glossary On
Versions: 1 2 3 4 5 6 7 8 9 10 11 12 13 14 15 16 17 18 19 20 21 22 23 24 25 26 27 28 29 30 31 32 33 34 35 36 37 38 39 40 41 42 43 44 45 46 47 48 49 50
000
ASUS43 KDTX 301801
RWRMI
MICHIGAN HOURLY REGIONAL WEATHER ROUNDUP
NATIONAL WEATHER SERVICE DETROIT/PONTIAC MI
200 PM EDT SAT MAY 30 2015

NOTE: "FAIR" INDICATES FEW OR NO CLOUDS BELOW 12,000 FEET WITH NO
SIGNIFICANT WEATHER AND/OR OBSTRUCTION TO VISIBILITY.

MIZ047>049-052>055-059>063-066>070-074>076-081>083-301900-
SOUTHEAST LOWER MICHIGAN

CITY           SKY/WX    TMP DP  RH WIND       PRES   REMARKS
ADRIAN         MOSUNNY   80  65  59 W14       29.98F
6HR MIN TEMP:  71; 6HR MAX TEMP:  81; 6HR PCP: TRACE;

ALMA           LGT RAIN  64  63  95 N8        30.01R
ANN ARBOR      HVY RAIN  72  67  84 W7        29.98S VSB 1
BAD AXE        CLOUDY    59  58  94 NE13      30.03R
CARO           CLOUDY    68  65  90 N5        29.99S
DETROIT CITY   LGT RAIN  73  66  78 NW8       29.97F
6HR MIN TEMP:  70; 6HR MAX TEMP:  81; 6HR PCP:  0.10;

DETROIT        TSTM      75  67  76 N8        29.97F
6HR MIN TEMP:  73; 6HR MAX TEMP:  83; 6HR PCP:  0.09;

FLINT          LGT RAIN  75  66  73 W8        29.98S
6HR MIN TEMP:  72; 6HR MAX TEMP:  78; 6HR PCP:  0.05;

GROSSE ILE     PTSUNNY   79  70  73 S9G16     29.95F
HILLSDALE      PTSUNNY   78  68  70 CALM      29.99F
6HR MIN TEMP:  71; 6HR MAX TEMP:  78;

HOWELL         LGT RAIN  75  67  76 W10       29.99F

CITY           SKY/WX    TMP DP  RH WIND       PRES   REMARKS
JACKSON        LGT RAIN  75  68  78 VRB3      29.99F
6HR MIN TEMP:  67; 6HR MAX TEMP:  75; 6HR PCP:  0.24;

LAMBERTVILLE   PTSUNNY   81  64  57 SW8       29.98S
LANSING        LGT RAIN  74  66  76 W7        29.99F
6HR MIN TEMP:  69; 6HR MAX TEMP:  74; 6HR PCP:  0.02;

LAPEER         CLOUDY    73  67  83 NW3       29.99S
MASON          CLOUDY    72  65  79 W3        29.99F
MONROE         MOSUNNY   82  66  57 SW13G18   29.94F
MT. CLEMENS    PTSUNNY   71  69  92 NW6       29.96F
6HR MIN TEMP:  66; 6HR MAX TEMP:  83; 6HR PCP:  0.36;

PONTIAC        PTSUNNY   76  67  73 W10       29.98F
6HR MIN TEMP:  67; 6HR MAX TEMP:  77;

PORT HOPE        N/A     56  54  93 N9        30.01S
6HR MIN TEMP:  56; 6HR MAX TEMP:  71; 6HR PCP:  0.01;

PORT HURON     RAIN      66  66 100 CALM      29.99S
TRI CITIES     LGT RAIN  68  64  87 N9        30.01R
6HR MIN TEMP:  67; 6HR MAX TEMP:  72; 6HR PCP:  0.04;

MIDLAND        HVY RAIN  64  62  93 N6        30.01R
TROY           PTSUNNY   75  70  82 NW7       30.00F
SAGINAW HB     CLOUDY    66  66 100 N9        29.99F
$$
MIZ043>046-050>051-056>058-064>065-071>073-077>080-301900-
SOUTHWEST LOWER MICHIGAN

CITY           SKY/WX    TMP DP  RH WIND       PRES   REMARKS
BATTLE CREEK   LGT RAIN  72  67  84 W6        30.00F
6HR MIN TEMP:  68; 6HR MAX TEMP:  73; 6HR PCP:  0.19;

BENTON HARBOR  CLOUDY    61  61 100 NW6       30.00F FOG
6HR MIN TEMP:  61; 6HR MAX TEMP:  69; 6HR PCP:  0.02;

BIG RAPIDS     DRIZZLE   54  49  83 N8G20     30.06R
6HR MIN TEMP:  54; 6HR MAX TEMP:  66; 6HR PCP:  0.18;

COLDWATER      CLOUDY    76  65  68 W5        29.99F
6HR MIN TEMP:  69; 6HR MAX TEMP:  77;

FREMONT        DRIZZLE   56  54  93 N14G20    30.04R
HOLLAND        LGT RAIN  62  60  93 W7        30.02S FOG
6HR MIN TEMP:  62; 6HR MAX TEMP:  67; 6HR PCP:  0.05;

GRAND RAPIDS   LGT RAIN  69  67  93 W8        30.00S FOG
6HR MIN TEMP:  68; 6HR MAX TEMP:  70; 6HR PCP:  0.03;

IONIA          RAIN      71  67  89 W7        29.99S
KALAMAZOO      CLOUDY    73  65  75 SW5       29.99F
6HR MIN TEMP:  68; 6HR MAX TEMP:  73; 6HR PCP:  0.12;

LUDINGTON      RAIN      51  48  90 N12       30.11R
6HR MIN TEMP:  51; 6HR MAX TEMP:  56; 6HR PCP:  0.40;

MARSHALL       HVY RAIN  71  68  89 W6        29.99S
MOUNT PLEASANT RAIN      60  58  92 N8        30.02S
6HR MIN TEMP:  60; 6HR MAX TEMP:  69; 6HR PCP:  0.06;

MUSKEGON       LGT RAIN  61  58  90 N14       30.03R
6HR MIN TEMP:  56; 6HR MAX TEMP:  64; 6HR PCP:  0.09;

SOUTH HAVEN    LGT RAIN  60  59  95 NW7       30.01S
$$
MIZ016>042-301900-
NORTHERN LOWER MICHIGAN

CITY           SKY/WX    TMP DP  RH WIND       PRES   REMARKS
ALPENA         LGT RAIN  53  51  93 NW13      30.09R
6HR MIN TEMP:  53; 6HR MAX TEMP:  62; 6HR PCP:  0.13;

BEAVER ISLAND  CLOUDY    54  40  59 N9G17     30.16R
6HR MIN TEMP:  47; 6HR MAX TEMP:  55;

BELLAIRE       LGT RAIN  53  49  87 N5        30.13R
6HR MIN TEMP:  49; 6HR MAX TEMP:  54;

CADILLAC       RAIN      50  47  91 N10G18    30.09R
CHARLEVOIX     CLOUDY    49  47  92 NW9       30.17R
6HR MIN TEMP:  46; 6HR MAX TEMP:  49;

FRANKFORT      LGT RAIN  50  44  80 N10G17    30.13S
GAYLORD        LGT RAIN  51  48  89 N9        30.11R
6HR MIN TEMP:  51; 6HR MAX TEMP:  55; 6HR PCP:  0.26;

GRAYLING       RAIN      52  50  91 N9        30.11R
6HR MIN TEMP:  51; 6HR MAX TEMP:  58;

HARBOR SPRINGS CLOUDY    53  46  75 CALM      30.13R
HOUGHTON LAKE  LGT RAIN  53  50  89 N12G23    30.08R
6HR MIN TEMP:  53; 6HR MAX TEMP:  60; 6HR PCP:  0.25;

MANISTEE       CLOUDY    52  45  76 NE10      30.13R
OSCODA         LGT RAIN  59  56  91 N12       30.03R
PELLSTON       CLOUDY    55  43  63 N8        30.13R
6HR MIN TEMP:  50; 6HR MAX TEMP:  55; 6HR PCP: TRACE;

ROGERS CITY    DRIZZLE   53  50  87 NW9G17    30.10S
TRAVERSE CITY  LGT RAIN  49  46  90 N8        30.12S
6HR MIN TEMP:  48; 6HR MAX TEMP:  52; 6HR PCP:  0.24;

$$
MIZ007>008-015-301900-
EASTERN UPPER MICHIGAN

CITY           SKY/WX    TMP DP  RH WIND       PRES   REMARKS
KINROSS        CLOUDY    54  41  62 NW16      30.11S
6HR MIN TEMP:  46; 6HR MAX TEMP:  54;

MACKINAC ISLAN CLOUDY    54  42  63 N14       30.12R
6HR MIN TEMP:  48; 6HR MAX TEMP:  54;

NEWBERRY       CLOUDY    49  39  68 N15G22    30.16R
6HR MIN TEMP:  44; 6HR MAX TEMP:  51;

S. S. MARIE    CLOUDY    53  39  59 NW14G21   30.11R
6HR MIN TEMP:  45; 6HR MAX TEMP:  58;

$$
MIZ004>006-011>014-085-301900-
CENTRAL UPPER MICHIGAN

CITY           SKY/WX    TMP DP  RH WIND       PRES   REMARKS
MANISTIQUE     CLOUDY    52  39  62 N10G25    30.17S
ESCANABA       CLOUDY    52  37  58 N13G21    30.20R
6HR MIN TEMP:  48; 6HR MAX TEMP:  54;

MENOMINEE      CLOUDY    54  39  58 NE14G20   30.19R
6HR MIN TEMP:  50; 6HR MAX TEMP:  55;

SAWYER-GWINN   MOSUNNY   43  32  65 N18       30.24R
$$
MIZ001>003-009>011-084-301900-
WESTERN UPPER MICHIGAN

CITY           SKY/WX    TMP DP  RH WIND       PRES   REMARKS
IRON MOUNTAIN  CLOUDY    51  39  63 N12       30.21R
6HR MIN TEMP:  49; 6HR MAX TEMP:  53;

HOUGHTON       SUNNY     46  33  60 N12G18    30.28R
6HR MIN TEMP:  43; 6HR MAX TEMP:  46;

COPPER HARBOR    N/A     40  33  76 N15       30.29R WCI  32
6HR MIN TEMP:  40; 6HR MAX TEMP:  42;

IRONWOOD       CLOUDY    45  36  70 N6        30.26S
6HR MIN TEMP:  43; 6HR MAX TEMP:  46;

$$

ABBREVIATIONS USED IN REMARKS
   TC - TEMPERATURE IN CELSIUS
  WCI - WIND CHILL INDEX
   HX - HEAT INDEX
  VSB - VISIBILITY



USA.gov is the U.S. government's official web portal to all federal, state and local government web resources and services.